Flag for Germany Weather past 2 weeks in Geretsried, Bavaria, Germany

Now
82 °F

Sunny.


Feels Like: 82 °F
Forecast: 58 / 87 °F
Wind: 8 mph from Northeast

Location: Oberpfaffenhofen

Current Time: Jul 1, 2015 at 3:33:29 PM

Latest Report: Jul 1, 2015 at 3:20 PM


Visibility: 10 mi

Pressure: 30.15 "Hg

Humidity: 42%

Dew point: 57 °F

Location of GeretsriedLocation

Historic Weather in Geretsried — Graph

°F

Geretsried temperature yesterday

Maximum temperature yesterday: 82 °F (at 5:50 PM)
Minimum temperature yesterday: 57 °F (at 6:50 AM)
Average temperature yesterday: 75 °F

Past Weeks' High & Low Weather Summary

 TemperatureHumidityPressure
High82 °F (Jun 30, 5:50 PM)100% (Jun 17, 6:50 AM)30.24 "Hg (Jun 17, 6:50 AM)
Low48 °F (Jun 20, 11:20 AM)34% (Jun 30, 4:20 PM)29.86 "Hg (Jun 22, 7:50 PM)
Average63 °F67%30.12 "Hg
* Reported Jun 16 2:20 PM — Jul 1 2:20 PM, Geretsried, Weather by CustomWeather, © 2015

Note: Actual official high and low records may vary slightly from our data, if they occured in-between our weather recording intervals... More about our weather records

Advertising

Geretsried weather history for previous 24 hours

 ConditionsComfort  
Time TempWeatherWind HumidityBarometerVisibility
2:20 PM
Wed, Jul 1
82 °FPassing clouds.7 mph37%30.15 "HgN/A
1:50 PM82 °FPassing clouds.7 mph40%30.15 "HgN/A
1:20 PM81 °FSunny.8 mph39%30.15 "Hg10 mi
12:50 PM81 °FSunny.8 mph42%30.15 "Hg10 mi
12:20 PM81 °FSunny.10 mph45%30.18 "Hg10 mi
11:50 AM79 °FSunny.9 mph45%30.18 "Hg10 mi
11:20 AM79 °FPassing clouds.8 mph51%30.18 "HgN/A
10:50 AM77 °FPassing clouds.9 mph51%30.18 "HgN/A
10:20 AM75 °FPassing clouds.8 mph57%30.18 "HgN/A
9:50 AM75 °FPassing clouds.5 mph57%30.18 "HgN/A
9:20 AM73 °FSunny.2 mph61%30.18 "Hg10 mi
8:50 AM72 °FSunny.2 mph61%30.18 "Hg10 mi
8:20 AM70 °FSunny.No wind64%30.18 "Hg10 mi
7:50 AM68 °FSunny.No wind69%30.18 "Hg10 mi
7:20 AM63 °FSunny.1 mph88%30.15 "Hg10 mi
6:50 AM59 °FSunny.1 mph94%30.15 "Hg10 mi
6:50 PM
Tue, Jun 30
81 °FSunny.3 mph37%30.15 "Hg10 mi
6:20 PM81 °FSunny.3 mph34%30.15 "Hg10 mi
5:50 PM82 °FSunny.2 mph35%30.15 "Hg10 mi
4:50 PM81 °FSunny.5 mph39%30.15 "Hg10 mi
4:20 PM81 °FSunny.3 mph34%30.15 "Hg10 mi
3:50 PM79 °FSunny.10 mph42%30.18 "Hg10 mi
Weather by CustomWeather, © 2015

See weather overviewHow to use our weather pages